owner,sensor,date,latitude,longitude,vertical_datum,wind_speed,wind_to_direction,wind_speed_of_gust,qcFlag 
DISL,ioos:station:DISL:MHPA:1,2010-02-01T00:00:00Z,30.6671,-87.9365,8.5,1.79,3.216,-9999.0,'1111122,1111122,1111122' 
DISL,ioos:station:DISL:MHPA:1,2010-02-01T00:30:00Z,30.6671,-87.9365,8.5,1.87,19.65,-9999.0,'1111122,1111122,1111122' 
DISL,ioos:station:DISL:MHPA:1,2010-02-01T01:00:00Z,30.6671,-87.9365,8.5,1.82,11.37,-9999.0,'1111122,1111122,1111122' 
DISL,ioos:station:DISL:MHPA:1,2010-02-01T01:30:00Z,30.6671,-87.9365,8.5,1.93,21.07,-9999.0,'1111122,1111122,1111122' 
DISL,ioos:station:DISL:MHPA:1,2010-02-01T02:00:00Z,30.6671,-87.9365,8.5,1.75,0.399,-9999.0,'1111122,1111122,1111122' 
DISL,ioos:station:DISL:MHPA:1,2010-02-01T02:30:00Z,30.6671,-87.9365,8.5,1.97,23.37,-9999.0,'1111122,1111122,1111122' 
DISL,ioos:station:DISL:MHPA:1,2010-02-01T03:00:00Z,30.6671,-87.9365,8.5,1.77,36.21,-9999.0,'1111122,1111122,1111122' 
DISL,ioos:station:DISL:MHPA:1,2010-02-01T03:30:00Z,30.6671,-87.9365,8.5,2.02,33.65,-9999.0,'1111122,1111122,1111122' 
DISL,ioos:station:DISL:MHPA:1,2010-02-01T04:00:00Z,30.6671,-87.9365,8.5,1.72,29.07,-9999.0,'1111122,1111122,1111122' 
DISL,ioos:station:DISL:MHPA:1,2010-02-01T04:30:00Z,30.6671,-87.9365,8.5,1.36,28.48,-9999.0,'1111122,1111122,1111122' 
DISL,ioos:station:DISL:MHPA:1,2010-02-01T05:00:00Z,30.6671,-87.9365,8.5,1.64,35.35,-9999.0,'1111122,1111122,1111122' 
DISL,ioos:station:DISL:MHPA:1,2010-02-01T05:30:00Z,30.6671,-87.9365,8.5,2.0,52.22,-9999.0,'1111122,1111122,1111122' 
DISL,ioos:station:DISL:MHPA:1,2010-02-01T06:00:00Z,30.6671,-87.9365,8.5,2.33,70.1,-9999.0,'1111122,1111122,1111122' 
DISL,ioos:station:DISL:MHPA:1,2010-02-01T06:30:00Z,30.6671,-87.9365,8.5,2.55,76.2,-9999.0,'1111122,1111122,1111122' 
DISL,ioos:station:DISL:MHPA:1,2010-02-01T07:00:00Z,30.6671,-87.9365,8.5,2.6,76.9,-9999.0,'1111122,1111122,1111122' 
DISL,ioos:station:DISL:MHPA:1,2010-02-01T07:30:00Z,30.6671,-87.9365,8.5,1.96,78.7,-9999.0,'1111122,1111122,1111122' 
DISL,ioos:station:DISL:MHPA:1,2010-02-01T08:00:00Z,30.6671,-87.9365,8.5,2.13,82.1,-9999.0,'1111122,1111122,1111122' 
DISL,ioos:station:DISL:MHPA:1,2010-02-01T08:30:00Z,30.6671,-87.9365,8.5,1.31,56.15,-9999.0,'1111122,1111122,1111122' 
DISL,ioos:station:DISL:MHPA:1,2010-02-01T09:00:00Z,30.6671,-87.9365,8.5,1.73,73.5,-9999.0,'1111122,1111122,1111122' 
DISL,ioos:station:DISL:MHPA:1,2010-02-01T09:30:00Z,30.6671,-87.9365,8.5,1.99,62.47,-9999.0,'1111122,1111122,1111122' 
DISL,ioos:station:DISL:MHPA:1,2010-02-01T10:00:00Z,30.6671,-87.9365,8.5,1.59,56.01,-9999.0,'1111122,1111122,1111122' 
DISL,ioos:station:DISL:MHPA:1,2010-02-01T10:30:00Z,30.6671,-87.9365,8.5,1.14,29.59,-9999.0,'1111122,1111122,1111122' 
DISL,ioos:station:DISL:MHPA:1,2010-02-01T11:00:00Z,30.6671,-87.9365,8.5,1.55,25.79,-9999.0,'1111122,1111122,1111122' 
DISL,ioos:station:DISL:MHPA:1,2010-02-01T11:30:00Z,30.6671,-87.9365,8.5,1.24,42.25,-9999.0,'1111122,1111122,1111122' 
DISL,ioos:station:DISL:MHPA:1,2010-02-01T12:00:00Z,30.6671,-87.9365,8.5,1.29,40.7,-9999.0,'1111122,1111122,1111122' 
DISL,ioos:station:DISL:MHPA:1,2010-02-01T12:30:00Z,30.6671,-87.9365,8.5,2.07,50.5,-9999.0,'1111122,1111122,1111122' 
DISL,ioos:station:DISL:MHPA:1,2010-02-01T13:00:00Z,30.6671,-87.9365,8.5,0.82,1.736,-9999.0,'1111122,1111122,1111122' 
DISL,ioos:station:DISL:MHPA:1,2010-02-01T13:30:00Z,30.6671,-87.9365,8.5,1.51,17.34,-9999.0,'1111122,1111122,1111122' 
DISL,ioos:station:DISL:MHPA:1,2010-02-01T14:00:00Z,30.6671,-87.9365,8.5,1.99,63.09,-9999.0,'1111122,1111122,1111122' 
DISL,ioos:station:DISL:MHPA:1,2010-02-01T14:30:00Z,30.6671,-87.9365,8.5,2.88,48.39,-9999.0,'1111122,1111122,1111122' 
DISL,ioos:station:DISL:MHPA:1,2010-02-01T15:00:00Z,30.6671,-87.9365,8.5,2.66,54.89,-9999.0,'1111122,1111122,1111122' 
DISL,ioos:station:DISL:MHPA:1,2010-02-01T15:30:00Z,30.6671,-87.9365,8.5,1.58,55.12,-9999.0,'1111122,1111122,1111122' 
DISL,ioos:station:DISL:MHPA:1,2010-02-01T16:00:00Z,30.6671,-87.9365,8.5,1.79,43.06,-9999.0,'1111122,1111122,1111122' 
DISL,ioos:station:DISL:MHPA:1,2010-02-01T16:30:00Z,30.6671,-87.9365,8.5,1.95,37.67,-9999.0,'1111122,1111122,1111122' 
DISL,ioos:station:DISL:MHPA:1,2010-02-01T17:00:00Z,30.6671,-87.9365,8.5,1.82,351.8,-9999.0,'1111122,1111122,1111122' 
DISL,ioos:station:DISL:MHPA:1,2010-02-01T17:30:00Z,30.6671,-87.9365,8.5,1.85,44.28,-9999.0,'1111122,1111122,1111122' 
DISL,ioos:station:DISL:MHPA:1,2010-02-01T18:00:00Z,30.6671,-87.9365,8.5,2.47,95.4,-9999.0,'1111122,1111122,1111122' 
DISL,ioos:station:DISL:MHPA:1,2010-02-01T18:30:00Z,30.6671,-87.9365,8.5,2.51,89.3,-9999.0,'1111122,1111122,1111122' 
DISL,ioos:station:DISL:MHPA:1,2010-02-01T19:00:00Z,30.6671,-87.9365,8.5,1.8,184.3,-9999.0,'1111122,1111122,1111122' 
DISL,ioos:station:DISL:MHPA:1,2010-02-01T19:30:00Z,30.6671,-87.9365,8.5,0.91,201.3,-9999.0,'1111122,1111122,1111122' 
DISL,ioos:station:DISL:MHPA:1,2010-02-01T20:00:00Z,30.6671,-87.9365,8.5,1.95,178.9,-9999.0,'1111122,1111122,1111122' 
DISL,ioos:station:DISL:MHPA:1,2010-02-01T20:30:00Z,30.6671,-87.9365,8.5,2.43,264.9,-9999.0,'1111122,1111122,1111122' 
DISL,ioos:station:DISL:MHPA:1,2010-02-01T21:00:00Z,30.6671,-87.9365,8.5,1.84,276.2,-9999.0,'1111122,1111122,1111122' 
DISL,ioos:station:DISL:MHPA:1,2010-02-01T21:30:00Z,30.6671,-87.9365,8.5,1.14,306.7,-9999.0,'1111122,1111122,1111122' 
DISL,ioos:station:DISL:MHPA:1,2010-02-01T22:00:00Z,30.6671,-87.9365,8.5,1.02,298.4,-9999.0,'1111122,1111122,1111122' 
DISL,ioos:station:DISL:MHPA:1,2010-02-01T22:30:00Z,30.6671,-87.9365,8.5,2.12,330.9,-9999.0,'1111122,1111122,1111122' 
DISL,ioos:station:DISL:MHPA:1,2010-02-01T23:00:00Z,30.6671,-87.9365,8.5,1.84,306.8,-9999.0,'1111122,1111122,1111122' 
DISL,ioos:station:DISL:MHPA:1,2010-02-01T23:30:00Z,30.6671,-87.9365,8.5,0.9,358.3,-9999.0,'1111122,1111122,1111122' 
DISL,ioos:station:DISL:MHPA:1,2010-02-02T00:00:00Z,30.6671,-87.9365,8.5,1.27,64.99,-9999.0,'1111122,1111122,1111122' 
DISL,ioos:station:DISL:MHPA:1,2010-02-02T00:30:00Z,30.6671,-87.9365,8.5,0.49,36.09,-9999.0,'1111122,1111122,1111122' 
DISL,ioos:station:DISL:MHPA:1,2010-02-02T01:00:00Z,30.6671,-87.9365,8.5,1.58,60.87,-9999.0,'1111122,1111122,1111122' 
DISL,ioos:station:DISL:MHPA:1,2010-02-02T01:30:00Z,30.6671,-87.9365,8.5,2.05,83.5,-9999.0,'1111122,1111122,1111122' 
DISL,ioos:station:DISL:MHPA:1,2010-02-02T02:00:00Z,30.6671,-87.9365,8.5,1.21,56.36,-9999.0,'1111122,1111122,1111122' 
DISL,ioos:station:DISL:MHPA:1,2010-02-02T02:30:00Z,30.6671,-87.9365,8.5,1.6,61.98,-9999.0,'1111122,1111122,1111122' 
DISL,ioos:station:DISL:MHPA:1,2010-02-02T03:00:00Z,30.6671,-87.9365,8.5,1.5,62.13,-9999.0,'1111122,1111122,1111122' 
DISL,ioos:station:DISL:MHPA:1,2010-02-02T03:30:00Z,30.6671,-87.9365,8.5,1.71,76.5,-9999.0,'1111122,1111122,1111122' 
DISL,ioos:station:DISL:MHPA:1,2010-02-02T04:00:00Z,30.6671,-87.9365,8.5,1.08,56.44,-9999.0,'1111122,1111122,1111122' 
DISL,ioos:station:DISL:MHPA:1,2010-02-02T04:30:00Z,30.6671,-87.9365,8.5,0.68,64.03,-9999.0,'1111122,1111122,1111122' 
DISL,ioos:station:DISL:MHPA:1,2010-02-02T05:00:00Z,30.6671,-87.9365,8.5,1.62,82.6,-9999.0,'1111122,1111122,1111122' 
DISL,ioos:station:DISL:MHPA:1,2010-02-02T05:30:00Z,30.6671,-87.9365,8.5,0.92,343.3,-9999.0,'1111122,1111122,1111122' 
DISL,ioos:station:DISL:MHPA:1,2010-02-02T06:00:00Z,30.6671,-87.9365,8.5,0.63,34.36,-9999.0,'1111122,1111122,1111122' 
DISL,ioos:station:DISL:MHPA:1,2010-02-02T06:30:00Z,30.6671,-87.9365,8.5,0.77,42.82,-9999.0,'1111122,1111122,1111122' 
DISL,ioos:station:DISL:MHPA:1,2010-02-02T07:00:00Z,30.6671,-87.9365,8.5,1.01,342.5,-9999.0,'1111122,1111122,1111122' 
DISL,ioos:station:DISL:MHPA:1,2010-02-02T07:30:00Z,30.6671,-87.9365,8.5,1.47,346.3,-9999.0,'1111122,1111122,1111122' 
DISL,ioos:station:DISL:MHPA:1,2010-02-02T08:00:00Z,30.6671,-87.9365,8.5,1.44,301.2,-9999.0,'1111122,1111122,1111122' 
DISL,ioos:station:DISL:MHPA:1,2010-02-02T08:30:00Z,30.6671,-87.9365,8.5,1.35,6.245,-9999.0,'1111122,1111122,1111122' 
DISL,ioos:station:DISL:MHPA:1,2010-02-02T09:00:00Z,30.6671,-87.9365,8.5,0.32,77.1,-9999.0,'1111122,1111122,1111122' 
DISL,ioos:station:DISL:MHPA:1,2010-02-02T09:30:00Z,30.6671,-87.9365,8.5,0.89,21.04,-9999.0,'1111122,1111122,1111122' 
DISL,ioos:station:DISL:MHPA:1,2010-02-02T10:00:00Z,30.6671,-87.9365,8.5,1.58,9.04,-9999.0,'1111122,1111122,1111122' 
DISL,ioos:station:DISL:MHPA:1,2010-02-02T10:30:00Z,30.6671,-87.9365,8.5,1.6,7.77,-9999.0,'1111122,1111122,1111122' 
DISL,ioos:station:DISL:MHPA:1,2010-02-02T11:00:00Z,30.6671,-87.9365,8.5,1.95,344.6,-9999.0,'1111122,1111122,1111122' 
DISL,ioos:station:DISL:MHPA:1,2010-02-02T11:30:00Z,30.6671,-87.9365,8.5,0.81,11.28,-9999.0,'1111122,1111122,1111122' 
DISL,ioos:station:DISL:MHPA:1,2010-02-02T12:00:00Z,30.6671,-87.9365,8.5,1.92,349.5,-9999.0,'1111122,1111122,1111122' 
DISL,ioos:station:DISL:MHPA:1,2010-02-02T12:30:00Z,30.6671,-87.9365,8.5,1.79,353.0,-9999.0,'1111122,1111122,1111122' 
DISL,ioos:station:DISL:MHPA:1,2010-02-02T13:00:00Z,30.6671,-87.9365,8.5,1.74,8.13,-9999.0,'1111122,1111122,1111122' 
DISL,ioos:station:DISL:MHPA:1,2010-02-02T13:30:00Z,30.6671,-87.9365,8.5,2.09,7.08,-9999.0,'1111122,1111122,1111122' 
DISL,ioos:station:DISL:MHPA:1,2010-02-02T14:00:00Z,30.6671,-87.9365,8.5,2.26,351.4,-9999.0,'1111122,1111122,1111122' 
DISL,ioos:station:DISL:MHPA:1,2010-02-02T14:30:00Z,30.6671,-87.9365,8.5,3.09,353.4,-9999.0,'1111122,1111122,1111122' 
DISL,ioos:station:DISL:MHPA:1,2010-02-02T15:00:00Z,30.6671,-87.9365,8.5,2.48,350.5,-9999.0,'1111122,1111122,1111122' 
DISL,ioos:station:DISL:MHPA:1,2010-02-02T15:30:00Z,30.6671,-87.9365,8.5,3.72,357.4,-9999.0,'1111122,1111122,1111122' 
DISL,ioos:station:DISL:MHPA:1,2010-02-02T16:00:00Z,30.6671,-87.9365,8.5,4.8,354.7,-9999.0,'1111122,1111122,1111122' 
DISL,ioos:station:DISL:MHPA:1,2010-02-02T16:30:00Z,30.6671,-87.9365,8.5,4.05,357.8,-9999.0,'1111122,1111122,1111122' 
DISL,ioos:station:DISL:MHPA:1,2010-02-02T17:00:00Z,30.6671,-87.9365,8.5,3.53,359.8,-9999.0,'1111122,1111122,1111122' 
DISL,ioos:station:DISL:MHPA:1,2010-02-02T17:30:00Z,30.6671,-87.9365,8.5,3.94,346.0,-9999.0,'1111122,1111122,1111122' 
DISL,ioos:station:DISL:MHPA:1,2010-02-02T18:00:00Z,30.6671,-87.9365,8.5,4.87,325.1,-9999.0,'1111122,1111122,1111122' 
DISL,ioos:station:DISL:MHPA:1,2010-02-02T18:30:00Z,30.6671,-87.9365,8.5,5.62,337.7,-9999.0,'1111122,1111122,1111122' 
DISL,ioos:station:DISL:MHPA:1,2010-02-02T19:00:00Z,30.6671,-87.9365,8.5,5.44,348.1,-9999.0,'1111122,1111122,1111122' 
DISL,ioos:station:DISL:MHPA:1,2010-02-02T19:30:00Z,30.6671,-87.9365,8.5,5.82,343.0,-9999.0,'1111122,1111122,1111122' 
DISL,ioos:station:DISL:MHPA:1,2010-02-02T20:00:00Z,30.6671,-87.9365,8.5,4.87,345.2,-9999.0,'1111122,1111122,1111122' 
DISL,ioos:station:DISL:MHPA:1,2010-02-02T20:30:00Z,30.6671,-87.9365,8.5,4.84,334.7,-9999.0,'1111122,1111122,1111122' 
DISL,ioos:station:DISL:MHPA:1,2010-02-02T21:00:00Z,30.6671,-87.9365,8.5,4.26,334.9,-9999.0,'1111122,1111122,1111122' 
DISL,ioos:station:DISL:MHPA:1,2010-02-02T21:30:00Z,30.6671,-87.9365,8.5,4.66,339.1,-9999.0,'1111122,1111122,1111122' 
DISL,ioos:station:DISL:MHPA:1,2010-02-02T22:00:00Z,30.6671,-87.9365,8.5,3.88,351.6,-9999.0,'1111122,1111122,1111122' 
DISL,ioos:station:DISL:MHPA:1,2010-02-02T22:30:00Z,30.6671,-87.9365,8.5,3.99,354.3,-9999.0,'1111122,1111122,1111122' 
DISL,ioos:station:DISL:MHPA:1,2010-02-02T23:00:00Z,30.6671,-87.9365,8.5,3.6,351.8,-9999.0,'1111122,1111122,1111122' 
DISL,ioos:station:DISL:MHPA:1,2010-02-02T23:30:00Z,30.6671,-87.9365,8.5,2.0,358.8,-9999.0,'1111122,1111122,1111122' 
DISL,ioos:station:DISL:MHPA:1,2010-02-03T00:00:00Z,30.6671,-87.9365,8.5,1.61,349.4,-9999.0,'1111122,1111122,1111122' 
DISL,ioos:station:DISL:MHPA:1,2010-02-03T00:30:00Z,30.6671,-87.9365,8.5,1.85,353.4,-9999.0,'1111122,1111122,1111122' 
DISL,ioos:station:DISL:MHPA:1,2010-02-03T01:00:00Z,30.6671,-87.9365,8.5,1.62,11.9,-9999.0,'1111122,1111122,1111122' 
DISL,ioos:station:DISL:MHPA:1,2010-02-03T01:30:00Z,30.6671,-87.9365,8.5,1.7,8.26,-9999.0,'1111122,1111122,1111122' 
DISL,ioos:station:DISL:MHPA:1,2010-02-03T02:00:00Z,30.6671,-87.9365,8.5,1.71,4.584,-9999.0,'1111122,1111122,1111122' 
DISL,ioos:station:DISL:MHPA:1,2010-02-03T02:30:00Z,30.6671,-87.9365,8.5,1.87,355.3,-9999.0,'1111122,1111122,1111122' 
DISL,ioos:station:DISL:MHPA:1,2010-02-03T03:00:00Z,30.6671,-87.9365,8.5,0.92,358.9,-9999.0,'1111122,1111122,1111122' 
DISL,ioos:station:DISL:MHPA:1,2010-02-03T03:30:00Z,30.6671,-87.9365,8.5,1.22,23.29,-9999.0,'1111122,1111122,1111122' 
DISL,ioos:station:DISL:MHPA:1,2010-02-03T04:00:00Z,30.6671,-87.9365,8.5,1.2,22.28,-9999.0,'1111122,1111122,1111122' 
DISL,ioos:station:DISL:MHPA:1,2010-02-03T04:30:00Z,30.6671,-87.9365,8.5,1.03,16.69,-9999.0,'1111122,1111122,1111122' 
DISL,ioos:station:DISL:MHPA:1,2010-02-03T05:00:00Z,30.6671,-87.9365,8.5,1.3,19.64,-9999.0,'1111122,1111122,1111122' 
DISL,ioos:station:DISL:MHPA:1,2010-02-03T05:30:00Z,30.6671,-87.9365,8.5,1.07,24.94,-9999.0,'1111122,1111122,1111122' 
DISL,ioos:station:DISL:MHPA:1,2010-02-03T06:00:00Z,30.6671,-87.9365,8.5,1.43,4.3,-9999.0,'1111122,1111122,1111122' 
DISL,ioos:station:DISL:MHPA:1,2010-02-03T06:30:00Z,30.6671,-87.9365,8.5,1.82,2.64,-9999.0,'1111122,1111122,1111122' 
DISL,ioos:station:DISL:MHPA:1,2010-02-03T07:00:00Z,30.6671,-87.9365,8.5,2.24,356.9,-9999.0,'1111122,1111122,1111122' 
DISL,ioos:station:DISL:MHPA:1,2010-02-03T07:30:00Z,30.6671,-87.9365,8.5,1.67,5.028,-9999.0,'1111122,1111122,1111122' 
DISL,ioos:station:DISL:MHPA:1,2010-02-03T08:00:00Z,30.6671,-87.9365,8.5,2.33,3.975,-9999.0,'1111122,1111122,1111122' 
DISL,ioos:station:DISL:MHPA:1,2010-02-03T08:30:00Z,30.6671,-87.9365,8.5,1.64,12.02,-9999.0,'1111122,1111122,1111122' 
DISL,ioos:station:DISL:MHPA:1,2010-02-03T09:00:00Z,30.6671,-87.9365,8.5,2.15,17.56,-9999.0,'1111122,1111122,1111122' 
DISL,ioos:station:DISL:MHPA:1,2010-02-03T09:30:00Z,30.6671,-87.9365,8.5,2.25,17.0,-9999.0,'1111122,1111122,1111122' 
DISL,ioos:station:DISL:MHPA:1,2010-02-03T10:00:00Z,30.6671,-87.9365,8.5,2.78,7.89,-9999.0,'1111122,1111122,1111122' 
DISL,ioos:station:DISL:MHPA:1,2010-02-03T10:30:00Z,30.6671,-87.9365,8.5,2.75,5.137,-9999.0,'1111122,1111122,1111122' 
DISL,ioos:station:DISL:MHPA:1,2010-02-03T11:00:00Z,30.6671,-87.9365,8.5,2.83,14.54,-9999.0,'1111122,1111122,1111122' 
DISL,ioos:station:DISL:MHPA:1,2010-02-03T11:30:00Z,30.6671,-87.9365,8.5,1.64,19.03,-9999.0,'1111122,1111122,1111122' 
DISL,ioos:station:DISL:MHPA:1,2010-02-03T12:00:00Z,30.6671,-87.9365,8.5,2.22,12.62,-9999.0,'1111122,1111122,1111122' 
DISL,ioos:station:DISL:MHPA:1,2010-02-03T12:30:00Z,30.6671,-87.9365,8.5,1.7,354.8,-9999.0,'1111122,1111122,1111122' 
DISL,ioos:station:DISL:MHPA:1,2010-02-03T13:00:00Z,30.6671,-87.9365,8.5,1.83,15.87,-9999.0,'1111122,1111122,1111122' 
DISL,ioos:station:DISL:MHPA:1,2010-02-03T13:30:00Z,30.6671,-87.9365,8.5,1.94,19.15,-9999.0,'1111122,1111122,1111122' 
DISL,ioos:station:DISL:MHPA:1,2010-02-03T14:00:00Z,30.6671,-87.9365,8.5,1.4,15.68,-9999.0,'1111122,1111122,1111122' 
DISL,ioos:station:DISL:MHPA:1,2010-02-03T14:30:00Z,30.6671,-87.9365,8.5,2.59,22.68,-9999.0,'1111122,1111122,1111122' 
DISL,ioos:station:DISL:MHPA:1,2010-02-03T15:00:00Z,30.6671,-87.9365,8.5,2.62,23.21,-9999.0,'1111122,1111122,1111122' 
DISL,ioos:station:DISL:MHPA:1,2010-02-03T15:30:00Z,30.6671,-87.9365,8.5,3.56,44.99,-9999.0,'1111122,1111122,1111122' 
DISL,ioos:station:DISL:MHPA:1,2010-02-03T16:00:00Z,30.6671,-87.9365,8.5,2.97,57.11,-9999.0,'1111122,1111122,1111122' 
DISL,ioos:station:DISL:MHPA:1,2010-02-03T16:30:00Z,30.6671,-87.9365,8.5,1.96,60.98,-9999.0,'1111122,1111122,1111122' 
DISL,ioos:station:DISL:MHPA:1,2010-02-03T17:00:00Z,30.6671,-87.9365,8.5,1.78,44.21,-9999.0,'1111122,1111122,1111122' 
DISL,ioos:station:DISL:MHPA:1,2010-02-03T17:30:00Z,30.6671,-87.9365,8.5,2.55,26.88,-9999.0,'1111122,1111122,1111122' 
DISL,ioos:station:DISL:MHPA:1,2010-02-03T18:00:00Z,30.6671,-87.9365,8.5,2.46,21.73,-9999.0,'1111122,1111122,1111122' 
DISL,ioos:station:DISL:MHPA:1,2010-02-03T18:30:00Z,30.6671,-87.9365,8.5,2.93,345.7,-9999.0,'1111122,1111122,1111122' 
DISL,ioos:station:DISL:MHPA:1,2010-02-03T19:00:00Z,30.6671,-87.9365,8.5,3.48,343.5,-9999.0,'1111122,1111122,1111122' 
DISL,ioos:station:DISL:MHPA:1,2010-02-03T19:30:00Z,30.6671,-87.9365,8.5,3.29,350.1,-9999.0,'1111122,1111122,1111122' 
DISL,ioos:station:DISL:MHPA:1,2010-02-03T20:00:00Z,30.6671,-87.9365,8.5,4.11,335.1,-9999.0,'1111122,1111122,1111122' 
DISL,ioos:station:DISL:MHPA:1,2010-02-03T20:30:00Z,30.6671,-87.9365,8.5,4.05,331.7,-9999.0,'1111122,1111122,1111122' 
DISL,ioos:station:DISL:MHPA:1,2010-02-03T21:00:00Z,30.6671,-87.9365,8.5,3.41,322.8,-9999.0,'1111122,1111122,1111122' 
DISL,ioos:station:DISL:MHPA:1,2010-02-03T21:30:00Z,30.6671,-87.9365,8.5,3.25,321.7,-9999.0,'1111122,1111122,1111122' 
DISL,ioos:station:DISL:MHPA:1,2010-02-03T22:00:00Z,30.6671,-87.9365,8.5,2.44,350.5,-9999.0,'1111122,1111122,1111122' 
DISL,ioos:station:DISL:MHPA:1,2010-02-03T22:30:00Z,30.6671,-87.9365,8.5,2.02,12.14,-9999.0,'1111122,1111122,1111122' 
DISL,ioos:station:DISL:MHPA:1,2010-02-03T23:00:00Z,30.6671,-87.9365,8.5,1.56,14.08,-9999.0,'1111122,1111122,1111122' 
DISL,ioos:station:DISL:MHPA:1,2010-02-03T23:30:00Z,30.6671,-87.9365,8.5,2.28,11.08,-9999.0,'1111122,1111122,1111122' 
DISL,ioos:station:DISL:MHPA:1,2010-02-04T00:00:00Z,30.6671,-87.9365,8.5,1.71,23.82,-9999.0,'1111122,1111122,1111122' 
DISL,ioos:station:DISL:MHPA:1,2010-02-04T00:30:00Z,30.6671,-87.9365,8.5,1.84,17.37,-9999.0,'1111122,1111122,1111122' 
DISL,ioos:station:DISL:MHPA:1,2010-02-04T01:00:00Z,30.6671,-87.9365,8.5,1.72,13.86,-9999.0,'1111122,1111122,1111122' 
DISL,ioos:station:DISL:MHPA:1,2010-02-04T01:30:00Z,30.6671,-87.9365,8.5,1.66,1.004,-9999.0,'1111122,1111122,1111122' 
DISL,ioos:station:DISL:MHPA:1,2010-02-04T02:00:00Z,30.6671,-87.9365,8.5,2.21,358.2,-9999.0,'1111122,1111122,1111122' 
DISL,ioos:station:DISL:MHPA:1,2010-02-04T02:30:00Z,30.6671,-87.9365,8.5,2.31,8.45,-9999.0,'1111122,1111122,1111122' 
DISL,ioos:station:DISL:MHPA:1,2010-02-04T03:00:00Z,30.6671,-87.9365,8.5,2.65,359.4,-9999.0,'1111122,1111122,1111122' 
DISL,ioos:station:DISL:MHPA:1,2010-02-04T03:30:00Z,30.6671,-87.9365,8.5,2.17,15.04,-9999.0,'1111122,1111122,1111122' 
DISL,ioos:station:DISL:MHPA:1,2010-02-04T04:00:00Z,30.6671,-87.9365,8.5,1.52,5.718,-9999.0,'1111122,1111122,1111122' 
DISL,ioos:station:DISL:MHPA:1,2010-02-04T04:30:00Z,30.6671,-87.9365,8.5,1.44,27.53,-9999.0,'1111122,1111122,1111122' 
DISL,ioos:station:DISL:MHPA:1,2010-02-04T05:00:00Z,30.6671,-87.9365,8.5,1.53,39.39,-9999.0,'1111122,1111122,1111122' 
DISL,ioos:station:DISL:MHPA:1,2010-02-04T05:30:00Z,30.6671,-87.9365,8.5,0.93,355.6,-9999.0,'1111122,1111122,1111122' 
DISL,ioos:station:DISL:MHPA:1,2010-02-04T06:00:00Z,30.6671,-87.9365,8.5,2.11,11.0,-9999.0,'1111122,1111122,1111122' 
DISL,ioos:station:DISL:MHPA:1,2010-02-04T06:30:00Z,30.6671,-87.9365,8.5,1.56,7.8,-9999.0,'1111122,1111122,1111122' 
DISL,ioos:station:DISL:MHPA:1,2010-02-04T07:00:00Z,30.6671,-87.9365,8.5,2.52,321.5,-9999.0,'1111122,1111122,1111122' 
DISL,ioos:station:DISL:MHPA:1,2010-02-04T07:30:00Z,30.6671,-87.9365,8.5,1.86,359.2,-9999.0,'1111122,1111122,1111122' 
DISL,ioos:station:DISL:MHPA:1,2010-02-04T08:00:00Z,30.6671,-87.9365,8.5,2.5,38.06,-9999.0,'1111122,1111122,1111122' 
DISL,ioos:station:DISL:MHPA:1,2010-02-04T08:30:00Z,30.6671,-87.9365,8.5,2.4,20.27,-9999.0,'1111122,1111122,1111122' 
DISL,ioos:station:DISL:MHPA:1,2010-02-04T09:00:00Z,30.6671,-87.9365,8.5,2.45,38.37,-9999.0,'1111122,1111122,1111122' 
DISL,ioos:station:DISL:MHPA:1,2010-02-04T09:30:00Z,30.6671,-87.9365,8.5,2.73,26.68,-9999.0,'1111122,1111122,1111122' 
DISL,ioos:station:DISL:MHPA:1,2010-02-04T10:00:00Z,30.6671,-87.9365,8.5,2.9,44.54,-9999.0,'1111122,1111122,1111122' 
DISL,ioos:station:DISL:MHPA:1,2010-02-04T10:30:00Z,30.6671,-87.9365,8.5,2.26,35.3,-9999.0,'1111122,1111122,1111122' 
DISL,ioos:station:DISL:MHPA:1,2010-02-04T11:00:00Z,30.6671,-87.9365,8.5,2.71,35.4,-9999.0,'1111122,1111122,1111122' 
DISL,ioos:station:DISL:MHPA:1,2010-02-04T11:30:00Z,30.6671,-87.9365,8.5,1.93,33.3,-9999.0,'1111122,1111122,1111122' 
DISL,ioos:station:DISL:MHPA:1,2010-02-04T12:00:00Z,30.6671,-87.9365,8.5,1.98,23.12,-9999.0,'1111122,1111122,1111122' 
DISL,ioos:station:DISL:MHPA:1,2010-02-04T12:30:00Z,30.6671,-87.9365,8.5,1.72,23.89,-9999.0,'1111122,1111122,1111122' 
DISL,ioos:station:DISL:MHPA:1,2010-02-04T13:00:00Z,30.6671,-87.9365,8.5,2.87,12.39,-9999.0,'1111122,1111122,1111122' 
DISL,ioos:station:DISL:MHPA:1,2010-02-04T13:30:00Z,30.6671,-87.9365,8.5,2.66,24.7,-9999.0,'1111122,1111122,1111122' 
DISL,ioos:station:DISL:MHPA:1,2010-02-04T14:00:00Z,30.6671,-87.9365,8.5,2.65,37.03,-9999.0,'1111122,1111122,1111122' 
DISL,ioos:station:DISL:MHPA:1,2010-02-04T14:30:00Z,30.6671,-87.9365,8.5,2.69,67.2,-9999.0,'1111122,1111122,1111122' 
DISL,ioos:station:DISL:MHPA:1,2010-02-04T15:00:00Z,30.6671,-87.9365,8.5,2.6,49.73,-9999.0,'1111122,1111122,1111122' 
DISL,ioos:station:DISL:MHPA:1,2010-02-04T15:30:00Z,30.6671,-87.9365,8.5,2.35,55.87,-9999.0,'1111122,1111122,1111122' 
DISL,ioos:station:DISL:MHPA:1,2010-02-04T16:00:00Z,30.6671,-87.9365,8.5,2.28,76.7,-9999.0,'1111122,1111122,1111122' 
DISL,ioos:station:DISL:MHPA:1,2010-02-04T16:30:00Z,30.6671,-87.9365,8.5,2.38,46.36,-9999.0,'1111122,1111122,1111122' 
DISL,ioos:station:DISL:MHPA:1,2010-02-04T17:00:00Z,30.6671,-87.9365,8.5,2.77,30.41,-9999.0,'1111122,1111122,1111122' 
DISL,ioos:station:DISL:MHPA:1,2010-02-04T17:30:00Z,30.6671,-87.9365,8.5,3.14,24.63,-9999.0,'1111122,1111122,1111122' 
DISL,ioos:station:DISL:MHPA:1,2010-02-04T18:00:00Z,30.6671,-87.9365,8.5,3.45,36.07,-9999.0,'1111122,1111122,1111122' 
DISL,ioos:station:DISL:MHPA:1,2010-02-04T18:30:00Z,30.6671,-87.9365,8.5,2.84,27.14,-9999.0,'1111122,1111122,1111122' 
DISL,ioos:station:DISL:MHPA:1,2010-02-04T19:00:00Z,30.6671,-87.9365,8.5,3.19,25.48,-9999.0,'1111122,1111122,1111122' 
DISL,ioos:station:DISL:MHPA:1,2010-02-04T19:30:00Z,30.6671,-87.9365,8.5,2.58,25.87,-9999.0,'1111122,1111122,1111122' 
DISL,ioos:station:DISL:MHPA:1,2010-02-04T20:00:00Z,30.6671,-87.9365,8.5,3.4,66.96,-9999.0,'1111122,1111122,1111122' 
DISL,ioos:station:DISL:MHPA:1,2010-02-04T20:30:00Z,30.6671,-87.9365,8.5,2.61,46.9,-9999.0,'1111122,1111122,1111122' 
DISL,ioos:station:DISL:MHPA:1,2010-02-04T21:00:00Z,30.6671,-87.9365,8.5,2.89,54.66,-9999.0,'1111122,1111122,1111122' 
DISL,ioos:station:DISL:MHPA:1,2010-02-04T21:30:00Z,30.6671,-87.9365,8.5,4.1,69.18,-9999.0,'1111122,1111122,1111122' 
DISL,ioos:station:DISL:MHPA:1,2010-02-04T22:00:00Z,30.6671,-87.9365,8.5,4.76,92.6,-9999.0,'1111122,1111122,1111122' 
DISL,ioos:station:DISL:MHPA:1,2010-02-04T22:30:00Z,30.6671,-87.9365,8.5,4.7,88.5,-9999.0,'1111122,1111122,1111122' 
DISL,ioos:station:DISL:MHPA:1,2010-02-04T23:00:00Z,30.6671,-87.9365,8.5,4.25,86.8,-9999.0,'1111122,1111122,1111122' 
DISL,ioos:station:DISL:MHPA:1,2010-02-04T23:30:00Z,30.6671,-87.9365,8.5,6.15,97.9,-9999.0,'1111122,1111122,1111122' 
DISL,ioos:station:DISL:MHPA:1,2010-02-05T00:00:00Z,30.6671,-87.9365,8.5,5.73,106.2,-9999.0,'1111122,1111122,1111122' 
DISL,ioos:station:DISL:MHPA:1,2010-02-05T00:30:00Z,30.6671,-87.9365,8.5,6.67,102.0,-9999.0,'1111122,1111122,1111122' 
DISL,ioos:station:DISL:MHPA:1,2010-02-05T01:00:00Z,30.6671,-87.9365,8.5,8.19,111.0,-9999.0,'1111122,1111122,1111122' 
DISL,ioos:station:DISL:MHPA:1,2010-02-05T01:30:00Z,30.6671,-87.9365,8.5,9.36,116.9,-9999.0,'1111122,1111122,1111122' 
DISL,ioos:station:DISL:MHPA:1,2010-02-05T02:00:00Z,30.6671,-87.9365,8.5,10.64,119.3,-9999.0,'1111122,1111122,1111122' 
DISL,ioos:station:DISL:MHPA:1,2010-02-05T02:30:00Z,30.6671,-87.9365,8.5,10.17,122.4,-9999.0,'1111122,1111122,1111122' 
DISL,ioos:station:DISL:MHPA:1,2010-02-05T03:00:00Z,30.6671,-87.9365,8.5,10.45,124.7,-9999.0,'1111122,1111122,1111122' 
DISL,ioos:station:DISL:MHPA:1,2010-02-05T03:30:00Z,30.6671,-87.9365,8.5,11.32,124.0,-9999.0,'1111122,1111122,1111122' 
DISL,ioos:station:DISL:MHPA:1,2010-02-05T04:00:00Z,30.6671,-87.9365,8.5,9.02,128.7,-9999.0,'1111122,1111122,1111122' 
DISL,ioos:station:DISL:MHPA:1,2010-02-05T04:30:00Z,30.6671,-87.9365,8.5,6.24,196.6,-9999.0,'1111122,1111122,1111122' 